Location: Newark
(44.1667°N, 8.2500°E)
Time: 14:01:29
(UTC+00:00)

Explorer 11/Cluster Stage 4 - Pass Details

Date: 16 December 2019
Orbit: 467 x 1259 km, 28.8° (Epoch: 22 January)

Event Time Altitude Azimuth Distance (km) Brightness Sun altitude
Rises 06:00:56 0° 208° (SSW) 4,189 10.3 -9.5°
Reaches altitude 10° 06:05:42 10° 185° (S) 3,215 10.0 -8.7°
Maximum altitude 06:09:22 14° 158° (SSE) 2,896 10.2 -8.1°
Drops below altitude 10° 06:12:55 10° 131° (SE) 3,104 11.1 -7.6°
Sets 06:17:20 0° 108° (ESE) 3,940 12.5 -6.8°
